• In Uzbekistan
  • List of Countries
  • For 7 days
  • Water Temperature
  • Satellite Maps
  • Weather Map
  • Weather Widgets
  • user-avatar
    Login

    Hourly Weather Novomyloradivka

    Today, 18 December, Monday

    Time Temperature Precipitation Wind Pressure Humidity
    00:00 +3°C° 1.6 mm 5 mps 743 mmHg 93%
    01:00 +5°C° 1.6 mm 4 mps 743 mmHg 93%
    02:00 +5°C° 1.6 mm 4 mps 742 mmHg 94%
    03:00 +5°C° 1.1 mm 4 mps 742 mmHg 94%
    04:00 +5°C° 1.1 mm 4 mps 742 mmHg 94%
    05:00 +5°C° 1.1 mm 4 mps 741 mmHg 94%
    06:00 +5°C° 0.7 mm 4 mps 741 mmHg 94%
    07:00 +5°C° 0.7 mm 4 mps 740 mmHg 94%
    08:00 +6°C° 0.7 mm 4 mps 740 mmHg 94%
    09:00 +6°C° 0.6 mm 4 mps 740 mmHg 94%
    10:00 +6°C° 0.6 mm 4 mps 740 mmHg 94%
    11:00 +6°C° 0.6 mm 4 mps 740 mmHg 94%
    12:00 +6°C° 0.2 mm 5 mps 740 mmHg 91%
    13:00 +4°C° 0.2 mm 6 mps 740 mmHg 88%
    14:00 +4°C° 0.2 mm 7 mps 741 mmHg 85%
    15:00 +3°C° 0 mm 7 mps 741 mmHg 84%
    16:00 +2°C° 0 mm 7 mps 742 mmHg 83%
    17:00 0°C° 0 mm 7 mps 742 mmHg 81%
    18:00 +1°C° 0 mm 6 mps 743 mmHg 81%
    19:00 +1°C° 0 mm 6 mps 744 mmHg 80%
    20:00 -1°C° 0 mm 6 mps 744 mmHg 79%
    21:00 -1°C° 0 mm 6 mps 745 mmHg 79%
    22:00 -1°C° 0 mm 6 mps 745 mmHg 78%
    23:00 -2°C° 0 mm 6 mps 746 mmHg 77%

    Tomorrow, 19 December, Tuesday

    Time Temperature Precipitation Wind Pressure Humidity
    00:00 -2°C° 0 mm 6 mps 746 mmHg 77%
    01:00 -2°C° 0 mm 6 mps 746 mmHg 76%
    02:00 -2°C° 0 mm 6 mps 747 mmHg 76%
    03:00 -3°C° 0 mm 6 mps 747 mmHg 75%
    04:00 -3°C° 0 mm 6 mps 747 mmHg 75%
    05:00 -3°C° 0 mm 6 mps 748 mmHg 74%
    06:00 -3°C° 0 mm 6 mps 748 mmHg 75%
    07:00 -2°C° 0 mm 5 mps 748 mmHg 76%
    08:00 -2°C° 0 mm 5 mps 749 mmHg 76%
    09:00 -2°C° 0 mm 5 mps 749 mmHg 75%
    10:00 -2°C° 0 mm 5 mps 749 mmHg 73%
    11:00 -2°C° 0 mm 6 mps 750 mmHg 72%
    12:00 -1°C° 0 mm 5 mps 750 mmHg 71%
    13:00 -1°C° 0 mm 5 mps 750 mmHg 71%
    14:00 -1°C° 0 mm 5 mps 750 mmHg 70%
    15:00 -1°C° 0 mm 5 mps 750 mmHg 71%
    16:00 -1°C° 0 mm 5 mps 751 mmHg 72%
    17:00 -2°C° 0 mm 5 mps 751 mmHg 73%
    18:00 -2°C° 0 mm 4 mps 751 mmHg 74%
    19:00 -2°C° 0 mm 4 mps 751 mmHg 76%
    20:00 -2°C° 0 mm 4 mps 752 mmHg 77%
    21:00 -3°C° 0 mm 4 mps 752 mmHg 79%
    22:00 -3°C° 0 mm 4 mps 752 mmHg 80%
    23:00 -3°C° 0 mm 4 mps 752 mmHg 82%

    Day after tomorrow, 20 December, Wednesday

    Time Temperature Precipitation Wind Pressure Humidity
    00:00 -4°C° 0 mm 4 mps 752 mmHg 81%
    01:00 -4°C° 0 mm 4 mps 753 mmHg 81%
    02:00 -4°C° 0 mm 4 mps 753 mmHg 81%
    03:00 -4°C° 0 mm 4 mps 753 mmHg 81%
    04:00 -4°C° 0 mm 4 mps 753 mmHg 80%
    05:00 -4°C° 0 mm 4 mps 753 mmHg 80%
    06:00 -4°C° 0 mm 3 mps 753 mmHg 80%
    07:00 -4°C° 0 mm 3 mps 754 mmHg 80%
    08:00 -4°C° 0 mm 3 mps 754 mmHg 80%
    09:00 -4°C° 0 mm 3 mps 754 mmHg 77%
    10:00 -2°C° 0 mm 3 mps 754 mmHg 75%
    11:00 -1°C° 0 mm 3 mps 755 mmHg 72%
    12:00 -1°C° 0 mm 3 mps 755 mmHg 71%
    13:00 -1°C° 0 mm 3 mps 754 mmHg 70%
    14:00 -1°C° 0 mm 3 mps 754 mmHg 69%
    15:00 -1°C° 0 mm 3 mps 755 mmHg 71%
    16:00 -1°C° 0 mm 2 mps 755 mmHg 72%
    17:00 -1°C° 0 mm 2 mps 755 mmHg 73%
    18:00 -1°C° 0 mm 2 mps 755 mmHg 74%
    19:00 -1°C° 0 mm 2 mps 756 mmHg 75%
    20:00 +1°C° 0 mm 1 mps 756 mmHg 76%
    21:00 0°C° 0 mm 1 mps 756 mmHg 76%
    22:00 0°C° 0 mm 1 mps 756 mmHg 76%
    23:00 0°C° 0 mm 1 mps 757 mmHg 76%

    21 December, Thursday

    Time Temperature Precipitation Wind Pressure Humidity
    00:00 0°C° 0 mm 1 mps 757 mmHg 76%
    01:00 0°C° 0 mm 1 mps 757 mmHg 76%
    02:00 0°C° 0 mm 1 mps 757 mmHg 76%
    03:00 0°C° 0 mm 1 mps 757 mmHg 77%
    04:00 0°C° 0 mm 1 mps 757 mmHg 77%
    05:00 0°C° 0 mm 1 mps 757 mmHg 77%
    06:00 -2°C° 0 mm 2 mps 757 mmHg 78%
    07:00 -2°C° 0 mm 2 mps 757 mmHg 78%
    08:00 -2°C° 0 mm 2 mps 757 mmHg 79%
    09:00 -2°C° 0 mm 2 mps 757 mmHg 76%
    10:00 -1°C° 0 mm 2 mps 757 mmHg 73%
    11:00 -1°C° 0 mm 3 mps 757 mmHg 70%
    12:00 -1°C° 0 mm 3 mps 757 mmHg 70%
    13:00 -1°C° 0 mm 3 mps 757 mmHg 70%
    14:00 -1°C° 0 mm 3 mps 756 mmHg 70%
    15:00 -1°C° 0 mm 3 mps 756 mmHg 73%
    16:00 -2°C° 0 mm 2 mps 756 mmHg 76%
    17:00 -2°C° 0 mm 2 mps 756 mmHg 79%
    18:00 -2°C° 0 mm 2 mps 756 mmHg 80%
    19:00 -2°C° 0 mm 2 mps 756 mmHg 81%
    20:00 -2°C° 0 mm 2 mps 756 mmHg 82%
    21:00 -2°C° 0 mm 2 mps 755 mmHg 82%
    22:00 -2°C° 0 mm 2 mps 755 mmHg 82%
    23:00 -2°C° 0 mm 2 mps 755 mmHg 82%

    22 December, Friday

    Time Temperature Precipitation Wind Pressure Humidity
    00:00 -2°C° 0 mm 2 mps 754 mmHg 81%
    01:00 -2°C° 0 mm 2 mps 754 mmHg 80%
    02:00 -2°C° 0 mm 3 mps 754 mmHg 79%
    03:00 -2°C° 0 mm 3 mps 753 mmHg 79%
    04:00 -4°C° 0 mm 3 mps 753 mmHg 78%
    05:00 -4°C° 0 mm 3 mps 753 mmHg 78%
    06:00 -4°C° 0 mm 3 mps 752 mmHg 79%
    07:00 -4°C° 0 mm 3 mps 752 mmHg 80%
    08:00 -4°C° 0 mm 3 mps 752 mmHg 81%
    09:00 -4°C° 0 mm 3 mps 752 mmHg 77%
    10:00 -3°C° 0 mm 4 mps 751 mmHg 73%
    11:00 -2°C° 0 mm 4 mps 751 mmHg 69%
    12:00 -2°C° 0 mm 4 mps 750 mmHg 67%
    13:00 -2°C° 0 mm 5 mps 750 mmHg 65%
    14:00 -2°C° 0 mm 5 mps 749 mmHg 63%
    15:00 -2°C° 0 mm 4 mps 749 mmHg 67%
    16:00 -3°C° 0 mm 4 mps 749 mmHg 70%
    17:00 -3°C° 0 mm 4 mps 749 mmHg 73%
    18:00 -3°C° 0 mm 4 mps 748 mmHg 73%
    19:00 -4°C° 0 mm 5 mps 748 mmHg 73%
    20:00 -4°C° 0 mm 5 mps 748 mmHg 74%
    21:00 -4°C° 0 mm 5 mps 747 mmHg 75%
    22:00 -4°C° 0 mm 5 mps 747 mmHg 77%
    23:00 -4°C° 0 mm 5 mps 746 mmHg 79%

    23 December, Saturday

    Time Temperature Precipitation Wind Pressure Humidity
    00:00 -4°C° 0.2 mm 5 mps 746 mmHg 82%
    01:00 -4°C° 0.2 mm 5 mps 745 mmHg 85%
    02:00 -4°C° 0.2 mm 5 mps 744 mmHg 88%
    03:00 -4°C° 0.2 mm 5 mps 744 mmHg 88%
    04:00 -4°C° 0.2 mm 5 mps 743 mmHg 89%
    05:00 -4°C° 0.2 mm 5 mps 743 mmHg 89%
    06:00 -4°C° 0.2 mm 5 mps 742 mmHg 90%
    07:00 -4°C° 0.2 mm 5 mps 742 mmHg 91%
    08:00 -2°C° 0.2 mm 5 mps 742 mmHg 91%
    09:00 -2°C° 0.1 mm 5 mps 742 mmHg 88%
    10:00 -2°C° 0.1 mm 5 mps 742 mmHg 86%
    11:00 -1°C° 0.1 mm 5 mps 742 mmHg 83%
    12:00 -1°C° 0 mm 5 mps 741 mmHg 82%
    13:00 -2°C° 0 mm 6 mps 741 mmHg 81%
    14:00 -2°C° 0 mm 6 mps 741 mmHg 80%
    15:00 -2°C° 0 mm 6 mps 741 mmHg 82%
    16:00 -2°C° 0 mm 5 mps 741 mmHg 84%
    17:00 -2°C° 0 mm 5 mps 741 mmHg 86%
    18:00 -2°C° 0 mm 5 mps 741 mmHg 86%
    19:00 -4°C° 0 mm 5 mps 742 mmHg 87%
    20:00 -4°C° 0 mm 5 mps 742 mmHg 88%
    21:00 -3°C° 0 mm 4 mps 742 mmHg 87%
    22:00 -3°C° 0 mm 4 mps 742 mmHg 87%
    23:00 -3°C° 0 mm 4 mps 743 mmHg 87%
    Show more

    XHprof extension not loaded